Regional Weather Roundup
Issued by NWS Little Rock, AR

Home | Current Version | Previous Version | Graphics & Text | Print | Product List | Glossary On
Versions: 1 2 3 4 5 6 7 8 9 10 11 12 13 14 15 16 17 18 19 20 21 22 23 24 25 26 27 28 29 30 31 32 33 34 35 36 37 38 39 40 41 42 43 44 45 46 47 48 49 50
000
ASUS44 KLZK 141605
RWRLZK

WEATHER ROUNDUP FOR ARKANSAS
NATIONAL WEATHER SERVICE LITTLE ROCK AR
1000 AM CST THU DEC 14 2017

NOTE: "FAIR" INDICATES FEW OR NO CLOUDS BELOW 12,000 FEET WITH NO
SIGNIFICANT WEATHER AND/OR OBSTRUCTIONS TO VISIBILITY.

ARZ001-003-010-029-141700-
NORTHWEST ARKANSAS

CITY           SKY/WX    TMP DP  RH WIND       PRES   REMARKS
FAYETTEVILLE   CLOUDY    41  28  60 N9        30.08R
FORT SMITH     SUNNY     49  29  46 NW9       30.10R
HARRISON       CLOUDY    38  26  62 N8        30.09R
BENTONVILLE    CLOUDY    39  25  57 NE13G20   30.09F
ROGERS         CLOUDY    38  25  59 NE17      30.09S
SILOAM SPGS    CLOUDY    39  26  59 NE13      30.09S
HIGHFILL       CLOUDY    40  27  59 NE12      30.08F
SPRINGDALE     MOSUNNY   39  27  60 N10       30.09S
$$

ARZ004-005-016-141700-
NORTH CENTRAL ARKANSAS

CITY           SKY/WX    TMP DP  RH WIND       PRES   REMARKS
BATESVILLE     SUNNY     44  27  51 N10       30.10R
FLIPPIN        CLOUDY    40  26  57 N6        30.11R
MTN HOME       CLOUDY    39  26  59 VRB3      30.08R
$$

ARZ040-041-141700-
WEST CENTRAL ARKANSAS

CITY           SKY/WX    TMP DP  RH WIND       PRES   REMARKS
MENA           SUNNY     52  32  46 NE6       30.06S
MOUNT IDA      SUNNY     50  30  46 VRB3      30.04R
$$

ARZ009-017-025-026-028-141700-
NORTHEAST ARKANSAS

CITY           SKY/WX    TMP DP  RH WIND       PRES   REMARKS
CORNING        CLOUDY    41  25  52 NE10      30.09R
JONESBORO      CLOUDY    41  30  65 NE6       30.09R
NEWPORT        CLOUDY    43  29  57 NE12      30.10R
WALNUT RIDGE   CLOUDY    42  26  53 NW13      30.09R
BLYTHEVILLE    CLOUDY    42  30  62 N6        30.08R
NW BLYTHEVILLE CLOUDY    41  28  60 NE8       30.08R
$$

ARZ022-023-033-042-044-141700-
CENTRAL ARKANSAS

CITY           SKY/WX    TMP DP  RH WIND       PRES   REMARKS
LITTLE ROCK    MOSUNNY   49  30  48 N12       30.08R
N LITTLE ROCK    N/A     47  31  54 N9        30.09R
JACKSONVILLE   SUNNY     49  30  49 N9        30.06R
SEARCY         SUNNY     48  31  51 N10       30.08R
HOT SPRINGS    SUNNY     51  34  52 CALM      30.06R
RUSSELLVILLE   CLOUDY    49  29  46 N9        30.08R
CLINTON        FAIR      43  28  56 VRB6G12   30.10R
$$

ARZ036-141700-
EAST ARKANSAS

CITY           SKY/WX    TMP DP  RH WIND       PRES   REMARKS
WEST MEMPHIS   SUNNY     44  30  57 NE13      30.06R
$$

ARZ050-053-066-070-073-141700-
SOUTHWEST ARKANSAS

CITY           SKY/WX    TMP DP  RH WIND       PRES   REMARKS
ARKADELPHIA    FAIR      48  33  56 NE8       30.07R
CAMDEN         SUNNY     52  28  40 NE13      30.04R
TEXARKANA      SUNNY     51  31  46 NE10      30.04R
EL DORADO      SUNNY     51  34  52 NE13      30.03R
DE QUEEN       SUNNY     54  33  45 N10       30.04R
$$

ARZ056-057-069-141700-
SOUTHEAST ARKANSAS

CITY           SKY/WX    TMP DP  RH WIND       PRES   REMARKS
PINE BLUFF     SUNNY     49  31  49 N20       30.07R
STUTTGART      SUNNY     48  31  51 NE12      30.07R
MONTICELLO     SUNNY     51  30  44 NE17G23   30.03R

$$





USA.gov is the U.S. government's official web portal to all federal, state and local government web resources and services.